Location: Moreno
(33.9175°N, 117.1578°W)
Time: 05:24:11
(UTC+00:00)

USA 276 - Pass Details

Date: 18 April 2024
Orbit: 366 x 369 km, 50.0° (Epoch: 12 July)

Event Time Altitude Azimuth Distance (km) Brightness Sun altitude
Exits shadow 12:40:26 - 198° (SSW) 2,024 5.4 -7.4°
Reaches altitude 10° 12:42:39 10° 179° (S) 1,240 4.5 -7.0°
Maximum altitude 12:44:44 19° 131° (SE) 876 4.3 -6.5°
Drops below altitude 10° 12:46:53 10° 82° (E) 1,291 6.4 -6.1°
Sets 12:49:16 0° 64° (ENE) 2,158 8.2 -5.6°
